Regional Weather Roundup
Issued by NWS

Home | Current Version | Previous Version | Text Only | Print | Product List | Glossary On
Versions: 1 2 3 4 5 6 7 8 9 10 11 12 13 14 15 16 17 18 19 20 21 22 23 24 25 26 27 28 29 30 31 32 33 34 35 36 37 38 39 40 41 42 43 44 45 46 47 48 49 50
000
ASUS43 KDTX 010810
RWRMI
MICHIGAN HOURLY REGIONAL WEATHER ROUNDUP
NATIONAL WEATHER SERVICE DETROIT/PONTIAC MI
400 AM EDT SAT AUG 01 2015

NOTE: "FAIR" INDICATES FEW OR NO CLOUDS BELOW 12,000 FEET WITH NO
SIGNIFICANT WEATHER AND/OR OBSTRUCTION TO VISIBILITY.

MIZ047>049-052>055-059>063-066>070-074>076-081>083-010900-
SOUTHEAST LOWER MICHIGAN

CITY           SKY/WX    TMP DP  RH WIND       PRES   REMARKS
ADRIAN         CLEAR     61  53  75 W6        29.93S
ALMA           CLEAR     56  56  97 CALM      29.91S
ANN ARBOR      PTCLDY    58  52  80 W6        29.91S
BAD AXE        CLEAR     54  53  95 CALM      29.88S
CARO           CLEAR     55  54  98 CALM      29.88S
DETROIT CITY   CLEAR     68  54  60 W3        29.89F
DETROIT        PTCLDY    64  53  67 W6        29.90F
FLINT          CLEAR     62  56  80 SW5       29.90S
GROSSE ILE     CLEAR     64  55  72 CALM      29.89S
HILLSDALE      CLEAR     64  53  68 W7        29.95S
HOWELL         CLEAR     59  54  82 W6        29.91S

CITY           SKY/WX    TMP DP  RH WIND       PRES   REMARKS
JACKSON        CLEAR     59  53  80 W5        29.93S
LAMBERTVILLE   CLEAR     64  55  71 CALM      29.92F
LANSING        MOCLDY    62  55  77 W5        29.92S
LAPEER         FAIR      56  54  94 CALM      29.90R
MASON          CLEAR     58  53  81 CALM      29.92F
MONROE         PTCLDY    59  55  85 W5        29.90S
MT. CLEMENS    CLEAR     66  56  69 W6        29.86F
PONTIAC        CLEAR     63  56  78 W3        29.90S
PORT HOPE        N/A     61  57  87 VRB7      29.85S
PORT HURON     CLEAR     57  55  94 CALM      29.88S
TRI CITIES     CLEAR     62  55  77 W10       29.89S
MIDLAND        FAIR      55  55  97 CALM      29.88S
TROY           CLEAR     68  55  64 W6        29.91S
SAGINAW HB     CLEAR     61  55  82 W6        29.88S
$$
MIZ043>046-050>051-056>058-064>065-071>073-077>080-010900-
SOUTHWEST LOWER MICHIGAN

CITY           SKY/WX    TMP DP  RH WIND       PRES   REMARKS
BATTLE CREEK   CLEAR     63  57  81 W6        29.94S
BENTON HARBOR  CLEAR     71  60  68 VRB6      29.95F
BIG RAPIDS     CLEAR     56  56  97 CALM      29.91S FOG
COLDWATER      CLEAR     58  54  84 W5        29.95S
FREMONT        FAIR      59  57  93 NW3       29.91F
HOLLAND        CLEAR     67  60  78 W5        29.94F
GRAND RAPIDS   CLEAR     63  58  83 W6        29.93S
IONIA          FAIR      61  56  83 W6        29.91S
KALAMAZOO      CLEAR     66  58  75 W7        29.95S
LUDINGTON      CLEAR     63  57  80 CALM      29.91S
MARSHALL       CLEAR     59  55  85 W3        29.93S
MOUNT PLEASANT CLEAR     61  56  83 W5        29.89S
MUSKEGON       CLEAR     66  57  72 W5        29.92F
SOUTH HAVEN    CLEAR     70  60  71 NW5       29.95S
$$
MIZ016>042-010900-
NORTHERN LOWER MICHIGAN

CITY           SKY/WX    TMP DP  RH WIND       PRES   REMARKS
ALPENA         CLEAR     59  55  87 W5        29.84F
BEAVER ISLAND  CLEAR     58  56  95 W5        29.84S
BELLAIRE       CLEAR     53  51  94 CALM      29.86F
CADILLAC       CLEAR     52  50  94 CALM      29.90F
CHARLEVOIX     CLEAR     62  59  90 SW7       29.87S
FRANKFORT      PTCLDY    66  60  82 NW9       29.88S
GAYLORD        CLEAR     55  53  93 SW3       29.87F
GRAYLING       CLEAR     56  54  94 SW5       29.88F
HARBOR SPRINGS CLEAR     57  54  91 CALM      29.84F
HOUGHTON LAKE  CLEAR     62  57  83 W8        29.89F
MANISTEE       PTCLDY    55  52  88 E3        29.90S
OSCODA         CLEAR     56  54  94 CALM      29.85S
PELLSTON       CLEAR     50  48  93 CALM      29.84F
ROGERS CITY    CLEAR     58  54  87 SW6       29.84S
TRAVERSE CITY  CLEAR     61  57  87 CALM      29.85F
$$
MIZ007>008-015-010900-
EASTERN UPPER MICHIGAN

CITY           SKY/WX    TMP DP  RH WIND       PRES   REMARKS
KINROSS        CLEAR     54  52  94 W5        29.82S
MACKINAC ISLAN CLEAR     63  56  77 W8        29.82S
NEWBERRY       CLEAR     57  53  88 W7        29.82S
S. S. MARIE    CLEAR     58  54  86 W6        29.81S
MUNISING         N/A     57  52  83 S7        29.82F
$$
MIZ004>006-011>014-085-010900-
CENTRAL UPPER MICHIGAN

CITY           SKY/WX    TMP DP  RH WIND       PRES   REMARKS
MANISTIQUE     CLEAR     57  52  82 W5        29.83S
ESCANABA       CLEAR     55  52  88 W7        29.85S
MENOMINEE      MOCLDY    63  52  67 W5        29.88S
SAWYER-GWINN   MOCLDY    56  51  83 W5        29.86S
$$
MIZ001>003-009>011-084-010900-
WESTERN UPPER MICHIGAN

CITY           SKY/WX    TMP DP  RH WIND       PRES   REMARKS
IRON MOUNTAIN  PTCLDY    59  54  83 W5        29.88S
HOUGHTON       PTCLDY    59  54  83 W13       29.84F
COPPER HARBOR    N/A     64  53  67 N7        29.81S
IRONWOOD       CLEAR     54  52  94 W7        29.89S
$$

ABBREVIATIONS USED IN REMARKS
   TC - TEMPERATURE IN CELSIUS
  WCI - WIND CHILL INDEX
   HX - HEAT INDEX
  VSB - VISIBILITY



USA.gov is the U.S. government's official web portal to all federal, state and local government web resources and services.